Change the Weather History Date:

Friday, May 2, 2014

  Actual Average (KBAD) Record (KBAD)
Temperature  
Mean Temperature 63 °F -  
Max Temperature 78 °F 79 °F 89 °F (2012)
Min Temperature 48 °F 58 °F 47 °F (2014)
Degree Days  
Heating Degree Days 2    
Growing Degree Days 13 (Base 50)    
Moisture  
Dew Point 43 °F    
Average Humidity 56    
Maximum Humidity 89    
Minimum Humidity 22    
Precipitation  
Precipitation 0.00 in - - ()
Sea Level Pressure  
Sea Level Pressure 30.01 in    
Wind  
Wind Speed 2 mph (West)    
Max Wind Speed 14 mph    
Max Gust Speed 21 mph    
Visibility 10 miles    
Events      
Averages and records for this station are not official NWS values.
T = Trace of Precipitation, MM = Missing Value Source: NWS Daily Summary

Daily Weather History Graph

Daily Weather History Graph

Search for Another Location

Airport or City:

Trip Planner

Search our weather history database for the weather conditions in past years. The results will help you decide how hot, cold, wet, or windy it might be!

Date:

Astronomy

May. 02, 2014 Rise Set
Actual Time 6:25 AM CDT 7:55 PM CDT
Civil Twilight 5:59 AM CDT 8:21 PM CDT
Nautical Twilight 5:27 AM CDT 8:53 PM CDT
Astronomical Twilight 4:54 AM CDT 9:26 PM CDT
Moon 9:06 AM CDT (5/2) 11:15 PM CDT (5/2)
Length of Visible Light 14h 22m
Length of Day
13h 30m
Waxing Crescent, 12% of the Moon is Illuminated
May 2
Waxing Crescent
May 6
First Quarter
May 14
Full
May 21
Last Quarter
May 28
New

Hourly Weather History & Observations

Time (CDT) Temp. Dew Point Humidity Pressure Visibility Wind Dir Wind Speed Gust Speed Precip Events Conditions
12:15 AM 51.3 °F 45.5 °F 81% 30.06 in 10.0 mi Calm Calm - N/A   Clear
12:35 AM 51.3 °F 45.3 °F 80% 30.06 in 10.0 mi Calm Calm - N/A   Clear
12:55 AM 50.5 °F 45.3 °F 82% 30.06 in 10.0 mi Calm Calm - N/A   Clear
1:15 AM 50.0 °F 45.7 °F 85% 30.05 in 10.0 mi Calm Calm - N/A   Clear
1:35 AM 49.1 °F 44.8 °F 85% 30.05 in 10.0 mi North 3.5 mph - N/A   Clear
1:55 AM 49.8 °F 45.5 °F 85% 30.05 in 10.0 mi Calm Calm - N/A   Clear
2:15 AM 49.6 °F 45.9 °F 87% 30.04 in 10.0 mi Calm Calm - N/A   Clear
2:35 AM 49.8 °F 45.0 °F 83% 30.04 in 10.0 mi Calm Calm - N/A   Clear
2:55 AM 50.7 °F 45.3 °F 82% 30.03 in 10.0 mi Calm Calm - N/A   Clear
3:15 AM 51.3 °F 45.3 °F 80% 30.03 in 10.0 mi Calm Calm - N/A   Clear
3:35 AM 51.1 °F 46.2 °F 83% 30.02 in 10.0 mi Calm Calm - N/A   Clear
3:55 AM 51.3 °F 45.7 °F 81% 30.02 in 10.0 mi Calm Calm - N/A   Clear
4:15 AM 50.7 °F 45.9 °F 83% 30.01 in 10.0 mi Calm Calm - N/A   Clear
4:35 AM 50.7 °F 45.3 °F 82% 30.01 in 10.0 mi Calm Calm - N/A   Clear
4:55 AM 50.0 °F 45.1 °F 83% 30.01 in 10.0 mi Calm Calm - N/A   Clear
5:15 AM 49.1 °F 45.0 °F 86% 30.01 in 10.0 mi Calm Calm - N/A   Clear
5:35 AM 48.2 °F 44.6 °F 87% 30.02 in 10.0 mi Calm Calm - N/A   Clear
5:55 AM 48.6 °F 45.0 °F 87% 30.03 in 10.0 mi Calm Calm - N/A   Clear
6:15 AM 48.4 °F 45.1 °F 89% 30.04 in 10.0 mi Calm Calm - N/A   Clear
6:35 AM 49.1 °F 46.0 °F 89% 30.04 in 10.0 mi Calm Calm - N/A   Clear
6:55 AM 49.6 °F 46.6 °F 89% 30.05 in 10.0 mi Calm Calm - N/A   Clear
7:15 AM 50.7 °F 47.3 °F 88% 30.05 in 10.0 mi Calm Calm - N/A   Clear
7:35 AM 50.7 °F 47.5 °F 89% 30.06 in 10.0 mi Calm Calm - N/A   Clear
7:55 AM 54.1 °F 49.3 °F 84% 30.05 in 10.0 mi Calm Calm - N/A   Clear
8:15 AM 57.4 °F 50.2 °F 77% 30.06 in 10.0 mi Calm Calm - N/A   Clear
8:35 AM 60.1 °F 47.5 °F 63% 30.06 in 10.0 mi Calm Calm - N/A   Clear
8:55 AM 62.8 °F 46.4 °F 55% 30.06 in 10.0 mi Calm Calm - N/A   Clear
9:15 AM 64.6 °F 45.1 °F 49% 30.07 in 10.0 mi South 3.5 mph - N/A   Clear
9:35 AM 66.4 °F 44.1 °F 44% 30.07 in 10.0 mi Calm Calm - N/A   Clear
9:55 AM 67.8 °F 43.5 °F 41% 30.06 in 10.0 mi SSE 3.5 mph - N/A   Clear
10:15 AM 69.3 °F 43.2 °F 39% 30.06 in 10.0 mi Calm Calm - N/A   Clear
10:35 AM 70.3 °F 42.8 °F 37% 30.06 in 10.0 mi SSW 4.6 mph - N/A   Clear
10:55 AM 71.1 °F 39.9 °F 32% 30.06 in 10.0 mi SW 6.9 mph - N/A   Clear
11:15 AM 72.1 °F 39.0 °F 30% 30.06 in 10.0 mi West 6.9 mph - N/A   Clear
11:35 AM 73.4 °F 36.1 °F 26% 30.05 in 10.0 mi WSW 6.9 mph - N/A   Clear
11:55 AM 73.4 °F 37.8 °F 27% 30.04 in 10.0 mi Calm Calm - N/A   Clear
12:15 PM 73.6 °F 38.7 °F 28% 30.04 in 10.0 mi WSW 10.4 mph - N/A   Clear
12:35 PM 74.5 °F 37.6 °F 26% 30.03 in 10.0 mi WNW 6.9 mph - N/A   Clear
12:55 PM 74.7 °F 38.5 °F 27% 30.02 in 10.0 mi West 5.8 mph - N/A   Scattered Clouds
1:15 PM 75.0 °F 38.8 °F 27% 30.01 in 10.0 mi WNW 9.2 mph - N/A   Clear
1:35 PM 75.4 °F 37.9 °F 26% 30.00 in 10.0 mi West 5.8 mph - N/A   Clear
1:55 PM 76.3 °F 37.4 °F 25% 29.99 in 10.0 mi West 6.9 mph - N/A   Clear
2:15 PM 76.6 °F 37.4 °F 24% 29.98 in 10.0 mi NW 9.2 mph - N/A   Clear
2:35 PM 76.3 °F 36.3 °F 24% 29.97 in 10.0 mi SW 4.6 mph - N/A   Clear
2:55 PM 77.0 °F 37.4 °F 24% 29.97 in 10.0 mi West 11.5 mph 17.3 mph N/A   Scattered Clouds
3:15 PM 77.4 °F 38.5 °F 25% 29.96 in 10.0 mi West 13.8 mph 19.6 mph N/A   Scattered Clouds
3:35 PM 77.5 °F 36.3 °F 23% 29.96 in 10.0 mi West 11.5 mph 20.7 mph N/A   Scattered Clouds
3:55 PM 76.8 °F 36.9 °F 24% 29.95 in 10.0 mi NW 6.9 mph - N/A   Scattered Clouds
4:15 PM 78.3 °F 36.5 °F 22% 29.95 in 10.0 mi WNW 6.9 mph - N/A   Scattered Clouds
4:35 PM 77.7 °F 36.3 °F 22% 29.94 in 10.0 mi WSW 5.8 mph - N/A   Scattered Clouds
4:55 PM 78.1 °F 36.0 °F 22% 29.94 in 10.0 mi West 6.9 mph 18.4 mph N/A   Scattered Clouds
5:15 PM 77.5 °F 38.1 °F 24% 29.94 in 10.0 mi WNW 6.9 mph - N/A   Scattered Clouds
5:35 PM 78.1 °F 37.9 °F 24% 29.94 in 10.0 mi WNW 5.8 mph - N/A   Clear
5:55 PM 77.4 °F 37.9 °F 24% 29.94 in 10.0 mi West 11.5 mph 16.1 mph N/A   Clear
6:15 PM 76.6 °F 37.0 °F 24% 29.94 in 10.0 mi West 6.9 mph - N/A   Clear
6:35 PM 76.1 °F 37.2 °F 24% 29.93 in 10.0 mi West 4.6 mph - N/A   Clear
6:55 PM 75.6 °F 38.7 °F 26% 29.93 in 10.0 mi West 3.5 mph - N/A   Clear
7:15 PM 74.3 °F 39.9 °F 29% 29.93 in 10.0 mi Calm Calm - N/A   Clear
7:35 PM 70.9 °F 43.5 °F 37% 29.93 in 10.0 mi Calm Calm - N/A   Clear
7:55 PM 67.6 °F 44.8 °F 44% 29.94 in 10.0 mi Calm Calm - N/A   Clear
8:15 PM 64.8 °F 46.4 °F 51% 29.94 in 10.0 mi Calm Calm - N/A   Clear
8:35 PM 62.6 °F 47.5 °F 58% 29.95 in 10.0 mi Calm Calm - N/A   Clear
8:55 PM 59.7 °F 47.3 °F 63% 29.95 in 10.0 mi Calm Calm - N/A   Clear
9:15 PM 60.1 °F 47.3 °F 63% 29.96 in 10.0 mi Calm Calm - N/A   Clear
9:35 PM 58.3 °F 50.0 °F 74% 29.97 in 10.0 mi Calm Calm - N/A   Clear
9:55 PM 57.0 °F 50.0 °F 77% 29.97 in 10.0 mi Calm Calm - N/A   Clear
10:15 PM 56.3 °F 49.5 °F 78% 29.98 in 10.0 mi Calm Calm - N/A   Clear
10:35 PM 55.4 °F 49.3 °F 80% 29.99 in 10.0 mi Calm Calm - N/A   Clear
10:55 PM 54.5 °F 48.9 °F 81% 29.99 in 10.0 mi Calm Calm - N/A   Clear
11:15 PM 54.7 °F 49.1 °F 81% 29.99 in 10.0 mi Calm Calm - N/A   Clear
11:35 PM 53.4 °F 48.6 °F 84% 29.99 in 10.0 mi Calm Calm - N/A   Clear
11:55 PM 52.7 °F 48.0 °F 84% 29.99 in 10.0 mi Calm Calm - N/A   Clear